Date,TemperatureHighF,TemperatureAvgF,TemperatureLowF,DewpointHighF,DewpointAvgF,DewpointLowF,HumidityHigh,HumidityAvg,HumidityLow,PressureMaxIn,PressureMinIn,WindSpeedMaxMPH,WindSpeedAvgMPH,GustSpeedMaxMPH,PrecipitationSumIn
2013-1-1,38.2,36.4,33.7,28.8,27.5,18.6,80,70,54,30.02,29.89,9,4,30,0.00
2013-1-2,34.7,29.6,21.9,26.7,18.2,12.7,76,63,43,30.21,29.97,10,4,26,0.00
2013-1-3,24.2,20.4,16.9,15.1,13.8,12.1,81,75,68,30.20,30.17,1,0,6,0.00
2013-1-4,33.4,30.3,28.5,21.6,19.6,18.5,68,64,59,30.20,30.15,13,8,38,0.00
2013-1-5,45.2,34.5,27.0,23.7,20.5,17.0,71,58,32,30.34,30.18,14,4,29,0.00
2013-1-6,41.6,37.7,31.9,30.6,26.6,22.8,77,64,54,30.17,29.98,8,4,26,0.00
2013-1-7,39.9,32.2,24.4,29.0,25.0,21.9,90,75,56,30.43,30.06,8,2,26,0.00
2013-1-8,52.3,34.0,21.8,32.3,24.8,19.6,94,73,33,30.40,30.30,3,0,10,0.00
2013-1-9,55.9,41.0,27.0,46.0,33.7,24.7,91,76,60,30.41,30.21,10,3,29,0.00
2013-1-10,52.6,43.5,34.6,34.2,30.3,26.4,76,60,40,30.56,30.36,8,2,22,0.00
2013-1-11,44.9,39.3,34.3,40.6,34.6,29.0,100,84,66,30.44,30.06,4,1,11,0.00
2013-1-12,68.1,48.9,39.1,53.9,45.3,39.1,100,89,57,30.12,30.01,6,1,14,0.00
2013-1-13,65.0,53.0,43.1,56.2,50.2,43.1,100,91,69,30.04,29.89,3,1,10,0.00
2013-1-15,36.5,35.2,32.9,35.5,34.5,32.1,99,98,95,30.32,30.18,4,1,11,0.00
2013-1-16,43.3,35.8,32.2,41.2,34.0,31.1,100,94,67,30.17,29.80,8,2,21,0.00
2013-1-17,42.8,36.7,33.1,31.3,26.2,19.9,86,67,46,30.11,29.95,10,3,22,0.00
2013-1-18,39.1,31.9,25.7,24.5,14.1,4.5,68,49,24,30.46,30.07,8,3,30,0.00
2013-1-19,56.5,41.5,26.1,22.7,16.8,12.7,70,41,19,30.40,29.87,16,5,30,0.00
2013-1-20,47.9,43.3,33.4,29.8,18.6,3.4,57,38,20,30.03,29.76,13,7,44,0.00
2013-1-21,40.9,31.9,27.6,16.1,10.5,5.1,59,41,26,30.05,29.79,16,3,32,0.00
2013-1-22,24.4,14.1,7.9,14.7,-1.7,-7.7,66,49,34,30.28,29.94,11,5,30,0.00
2013-1-23,21.8,16.0,10.0,10.4,-1.5,-5.4,68,46,31,30.32,30.15,8,4,24,0.00
2013-1-24,23.2,16.3,8.4,14.5,7.0,-2.0,90,68,39,30.55,30.04,7,2,22,0.00
2013-1-25,23.0,14.3,7.0,19.7,9.0,0.6,90,80,65,30.54,30.04,4,1,11,0.00
2013-1-26,30.4,27.3,24.8,22.2,19.2,13.2,84,71,64,30.25,30.00,7,3,30,0.00
2013-1-28,53.1,34.9,28.5,49.7,32.7,20.9,100,92,72,30.39,30.03,7,1,19,0.00
2013-1-29,71.6,56.4,48.5,58.2,51.1,48.5,100,84,51,30.06,29.85,9,3,27,0.00
2013-1-30,69.1,56.7,49.4,58.5,53.0,46.4,100,88,69,29.90,29.19,18,4,40,0.00
2013-1-31,54.2,32.5,25.7,48.5,22.6,12.3,87,67,54,29.85,29.17,15,9,43,0.00
2013-2-1,27.5,17.6,13.1,22.7,6.5,0.2,88,61,51,30.37,29.79,10,6,32,0.00
2013-2-2,30.3,20.8,9.2,25.5,13.7,1.3,96,75,51,30.37,29.96,8,1,21,0.00
2013-2-3,32.7,28.1,22.2,24.3,19.7,11.9,95,71,56,29.99,29.77,10,3,29,0.00
2013-2-4,36.9,28.4,21.6,29.5,18.9,10.2,98,69,44,30.04,29.83,7,3,31,0.00
2013-2-5,42.1,36.0,30.0,35.6,32.7,28.1,99,88,73,29.90,29.78,10,2,32,0.00
2013-2-6,38.2,33.3,25.1,34.7,26.7,22.3,97,77,66,30.31,29.86,7,3,21,0.00
2013-2-7,29.0,25.7,24.1,24.0,22.8,22.1,92,89,79,30.37,30.29,2,0,7,0.00
2013-2-8,-200.0,0.0,200.0,-99.9,-99.9,-99.9,0,0,100,29.88,29.84,0,0,0,0.00
2013-3-11,52.2,51.2,50.0,47.0,46.1,45.3,85,83,80,29.89,29.83,2,1,4,0.00
2013-3-12,52.1,43.2,37.8,50.1,35.1,26.1,96,73,62,30.04,29.76,13,6,22,0.11
2013-3-13,42.2,33.9,27.3,32.7,25.0,18.8,94,70,49,30.16,29.96,12,5,27,0.02
2013-3-14,39.9,31.7,25.7,22.6,17.6,14.9,73,57,42,30.26,30.15,12,5,35,0.00
2013-3-15,54.4,42.3,28.8,34.5,26.4,16.3,68,54,43,30.19,29.85,10,4,20,0.00
2013-3-16,58.9,47.0,41.0,51.3,41.0,33.5,95,80,64,29.90,29.63,10,4,21,0.05
2013-3-17,46.0,38.0,32.2,41.1,32.2,27.3,95,80,72,30.25,29.90,9,3,16,0.00
2013-3-18,33.6,31.6,29.5,32.4,30.1,28.5,97,94,88,30.27,29.90,5,2,10,0.16
2013-3-19,50.0,40.4,31.1,35.6,23.8,8.2,99,59,21,30.02,29.80,18,7,37,0.40
2013-3-20,45.9,36.7,30.0,30.2,16.8,10.4,87,46,28,30.02,29.82,12,6,31,0.00
2013-3-21,29.9,25.9,22.3,22.7,13.9,9.9,79,61,46,30.00,29.86,10,4,21,0.00
2013-3-22,25.4,25.1,24.7,14.9,13.4,12.2,64,61,58,30.00,29.99,7,5,18,0.00
2013-3-23,50.4,37.8,24.3,23.4,19.5,16.3,78,50,28,30.08,29.98,7,3,18,0.00
2013-3-24,40.1,31.6,27.4,30.5,25.6,20.8,96,80,49,30.03,29.65,6,2,10,0.00
2013-3-25,38.2,32.6,29.0,32.9,29.3,26.3,97,88,71,29.77,29.56,8,2,15,0.46
2013-3-26,44.2,37.2,33.9,31.1,28.2,25.5,87,70,50,30.11,29.77,8,4,20,0.21
2013-3-27,42.0,36.6,33.0,31.8,27.5,23.2,84,69,57,30.21,30.08,9,5,28,0.00
2013-3-28,43.8,38.7,34.0,31.5,27.5,24.8,77,64,56,30.30,30.16,10,4,23,0.00
2013-3-29,52.8,43.2,35.9,31.5,27.5,24.0,75,55,35,30.31,30.20,7,2,24,0.00
2013-3-30,57.1,43.7,29.4,33.8,26.6,18.2,88,55,26,30.28,30.11,6,2,14,0.00
2013-3-31,49.4,41.0,35.8,44.9,36.7,25.6,98,85,60,30.11,29.79,7,1,12,0.26
2013-4-1,53.3,44.7,35.5,41.2,33.0,15.8,86,64,39,30.02,29.79,10,4,27,0.00
2013-4-2,44.0,36.3,29.9,19.0,14.6,9.9,58,41,27,30.23,30.02,9,4,23,0.00
2013-4-3,46.7,35.5,26.5,19.7,15.3,11.1,69,46,25,30.43,30.23,10,4,21,0.00
2013-4-4,50.8,35.6,21.8,32.4,18.8,11.7,80,53,27,30.43,30.07,8,3,14,0.00
2013-4-5,60.6,47.4,35.1,35.7,29.5,23.3,91,55,26,30.12,29.92,10,3,24,0.00
2013-4-6,59.8,44.2,27.7,24.3,20.2,13.4,71,42,18,30.33,30.13,6,2,19,0.12
2013-4-7,71.7,56.4,44.2,43.3,34.1,23.1,59,44,31,30.19,29.94,10,3,21,0.00
2013-4-8,77.6,63.5,46.3,47.7,44.1,40.9,82,52,30,30.09,29.91,10,3,20,0.00
2013-4-9,84.8,71.2,59.6,54.1,50.4,47.0,64,49,31,30.09,29.92,8,4,22,0.00
2013-4-10,87.7,74.4,59.6,57.9,52.5,48.5,69,48,29,29.97,29.79,12,5,22,0.00
2013-4-11,84.3,69.4,53.7,57.8,53.1,50.0,89,59,35,29.88,29.65,7,3,19,0.00
2013-4-12,72.7,61.9,49.1,62.7,50.0,34.0,98,69,37,29.82,29.57,15,5,30,0.90
2013-4-13,64.9,53.5,44.5,39.3,32.4,23.4,64,47,24,29.99,29.81,14,6,25,0.00
2013-4-14,67.7,53.6,39.0,44.4,37.3,30.9,80,56,36,30.16,29.99,6,3,13,0.00
2013-4-15,62.1,55.6,49.4,52.2,47.9,40.6,94,76,59,30.22,30.09,8,3,21,0.06
2013-4-16,79.8,66.6,55.7,60.2,55.7,51.4,89,70,46,30.23,30.05,9,4,16,0.11
2013-4-17,76.1,65.2,55.3,62.5,58.8,54.5,99,81,59,30.19,30.10,7,3,23,0.01
2013-4-18,77.0,66.9,59.1,63.0,58.1,54.5,92,75,56,30.16,29.90,14,4,28,0.00
2013-4-19,73.0,61.7,46.5,61.9,52.8,35.0,89,73,62,29.90,29.55,15,6,29,0.59
2013-4-20,54.2,46.0,38.4,34.9,27.8,21.5,64,50,32,30.40,29.83,10,6,25,0.00
2013-4-21,53.7,41.4,28.7,31.7,26.5,23.2,85,58,32,30.61,30.40,5,2,15,0.00
2013-4-22,57.7,44.6,30.5,33.6,28.6,21.2,86,57,28,30.56,30.37,9,3,16,0.00
2013-4-23,67.7,49.4,32.4,45.3,37.7,30.3,93,68,32,30.39,30.09,5,2,10,0.00
2013-4-24,45.8,44.2,42.5,41.0,40.4,39.7,90,86,82,30.10,30.04,1,0,3,0.00
2013-4-25,63.5,50.1,38.9,36.3,30.0,18.1,71,49,20,30.35,30.12,7,4,22,0.00
2013-4-26,64.9,51.5,38.4,37.9,34.7,30.4,87,55,32,30.48,30.34,5,2,10,0.00
2013-4-27,45.2,42.2,38.7,34.6,33.6,33.1,81,72,63,30.41,30.39,2,1,4,0.00
2013-4-28,52.2,51.8,51.5,47.8,47.3,46.9,86,85,82,30.12,30.09,5,2,9,0.28
2013-4-29,64.6,55.5,46.9,56.9,52.1,46.0,98,89,72,30.10,30.00,5,2,10,0.05
2013-4-30,63.9,56.7,52.0,55.5,52.9,50.3,97,87,68,30.28,30.08,7,3,13,0.00
2013-5-1,71.9,59.2,49.6,53.9,46.1,32.8,97,67,25,30.39,30.27,7,2,13,0.00
2013-5-2,72.3,55.4,39.9,47.8,40.8,34.3,90,62,28,30.41,30.29,7,3,15,0.00
2013-5-3,68.8,54.5,39.9,48.6,43.4,38.6,98,69,42,30.35,30.24,9,3,17,0.00
2013-5-4,67.2,52.9,37.0,47.6,40.4,32.2,92,64,41,30.30,30.15,10,3,19,0.00
2013-5-5,67.7,53.7,37.7,43.4,39.2,34.6,94,62,30,30.21,30.08,8,4,18,0.00
2013-5-6,56.6,51.8,46.7,54.1,48.3,41.4,97,88,69,30.16,30.03,7,4,15,0.02
2013-5-7,58.9,55.9,52.3,58.1,55.3,52.0,99,98,94,30.03,29.93,9,4,15,1.64
2013-5-8,65.3,55.4,51.0,57.5,52.8,50.8,100,92,68,30.02,29.92,6,1,12,0.57
2013-5-9,75.5,60.3,48.9,58.5,52.4,48.1,100,79,38,30.04,29.93,6,2,20,0.07
2013-5-10,79.9,61.1,51.1,65.6,56.9,50.3,98,87,48,30.04,29.86,10,1,19,0.25
2013-5-11,71.0,62.3,57.5,63.1,56.7,48.3,99,83,58,29.86,29.76,7,3,26,0.14
2013-5-12,57.4,51.0,39.6,48.4,35.4,25.6,80,57,36,30.07,29.80,9,4,24,0.00
2013-5-13,54.2,45.2,34.5,36.6,30.1,22.4,91,57,34,30.22,30.05,8,3,20,0.00
2013-5-14,64.6,48.4,28.9,48.5,37.4,27.9,97,71,32,30.25,30.03,4,1,10,0.01
2013-5-15,89.2,67.5,43.2,62.0,50.5,41.8,97,61,29,30.03,29.75,10,3,25,0.00
2013-5-16,78.1,69.1,59.9,61.3,55.6,50.0,93,64,38,29.97,29.79,8,4,34,0.05
2013-5-17,82.6,67.1,51.7,60.8,55.9,45.8,99,71,28,30.12,29.96,7,1,14,0.00
2013-5-18,70.9,62.9,56.3,63.8,57.9,52.9,94,84,69,30.17,30.09,4,1,9,0.00
2013-5-19,65.2,60.6,58.4,62.6,59.4,57.8,98,96,89,30.17,30.06,4,1,9,0.01
2013-5-20,83.8,68.7,57.0,69.7,63.3,56.6,100,85,53,30.11,29.96,5,1,12,0.00
2013-5-21,87.9,72.1,58.1,69.5,63.0,57.8,100,77,41,30.00,29.83,4,1,9,0.00
2013-5-22,85.7,70.6,61.5,66.3,62.8,58.3,98,78,46,29.91,29.84,5,1,13,0.16
2013-5-23,79.6,68.2,60.8,69.2,61.0,55.0,100,80,56,29.87,29.74,10,2,24,0.01
2013-5-24,65.1,51.3,41.0,55.8,40.6,29.8,87,67,50,30.26,29.79,8,4,24,0.00
2013-5-25,60.7,49.2,35.2,40.9,34.8,30.5,85,59,40,30.31,30.22,7,3,22,0.00
2013-5-26,70.1,54.2,36.2,40.2,34.0,23.8,92,53,22,30.29,30.20,6,2,16,0.00
2013-5-27,60.7,51.6,38.0,53.3,45.1,36.0,95,79,54,30.32,30.20,2,0,5,0.01
2013-5-28,84.8,64.6,50.4,64.6,55.6,49.5,98,76,37,30.22,30.04,7,1,17,0.00
2013-5-29,87.7,72.3,56.6,63.6,58.6,55.5,97,66,35,30.13,30.06,7,2,19,0.00
2013-5-30,89.9,73.4,58.0,71.2,62.3,56.4,96,71,37,30.20,30.08,3,0,12,0.00
2013-5-31,90.1,73.8,55.7,64.7,59.4,54.8,99,66,34,30.15,29.98,3,1,13,0.00
2013-6-1,88.7,74.5,61.5,71.9,65.2,59.8,95,75,44,30.03,29.87,3,1,15,0.04
2013-6-2,81.0,69.7,62.4,67.5,63.8,61.0,98,83,61,29.89,29.82,6,2,18,0.06
2013-6-3,77.1,65.7,57.0,66.5,60.2,53.4,100,84,55,30.02,29.85,5,1,11,0.02
2013-6-4,56.8,50.8,47.4,53.3,49.0,46.0,98,94,88,30.13,30.02,3,1,6,0.00
2013-6-5,79.2,64.3,47.2,61.2,54.9,46.1,97,74,51,30.17,30.00,4,1,10,0.00
2013-6-6,65.8,63.0,61.7,63.0,60.7,58.7,99,92,83,30.01,29.84,2,0,9,0.68
2013-6-7,69.1,64.5,61.7,67.3,63.4,58.8,100,96,87,29.84,29.68,4,1,13,0.07
2013-6-8,80.9,66.7,57.5,64.5,58.6,54.7,94,77,43,30.11,29.81,5,1,14,0.00
2013-6-9,78.2,67.1,56.4,68.0,62.5,55.5,99,86,68,30.18,30.06,4,1,9,0.00
2013-6-10,75.3,67.6,60.7,72.4,66.1,59.9,100,95,77,30.08,29.79,6,0,16,0.55
2013-6-11,76.1,70.0,61.2,66.2,62.2,59.6,99,77,64,29.90,29.81,7,3,20,0.01
2013-6-12,86.0,76.1,64.5,69.9,65.8,61.9,92,72,47,29.90,29.78,4,1,15,0.00
2013-6-13,77.4,66.7,62.0,70.0,62.9,55.3,100,88,71,29.81,29.53,8,3,22,1.29
2013-6-14,75.5,65.8,58.6,59.8,55.3,52.2,85,70,50,30.04,29.71,6,3,24,0.00
2013-6-15,81.0,66.3,51.3,60.4,54.2,47.2,100,70,31,30.12,30.01,4,1,10,0.00
2013-6-16,78.5,67.5,59.4,65.2,60.3,55.8,92,79,60,30.06,29.90,10,2,28,0.00
2013-6-17,86.1,75.0,66.6,68.1,64.3,60.9,90,70,46,29.96,29.87,5,2,15,0.00
2013-6-18,73.6,67.4,62.6,68.9,64.5,61.3,98,91,72,29.92,29.82,3,1,9,0.13
2013-6-19,76.0,65.6,60.9,64.4,61.5,60.0,99,87,60,30.14,29.91,5,1,10,0.00
2013-6-20,83.1,69.5,57.2,68.3,62.8,56.6,100,82,48,30.23,30.14,2,0,10,0.21
2013-6-21,84.5,70.5,58.9,70.2,64.3,58.6,100,83,50,30.26,30.17,3,0,8,0.00
2013-6-22,87.1,72.7,60.0,71.1,64.8,59.1,99,78,48,30.22,30.09,4,0,8,0.00
2013-6-23,87.2,71.7,59.6,71.5,65.1,59.0,100,82,47,30.18,30.06,4,0,13,0.09
2013-6-24,86.1,72.5,61.7,74.1,67.8,61.4,100,86,57,30.15,30.03,3,0,11,0.05
2013-6-25,90.2,76.3,64.2,72.3,66.6,62.3,100,76,42,30.07,29.90,2,0,13,0.01
2013-6-26,83.1,72.6,65.6,71.2,67.4,64.1,96,85,60,29.92,29.83,4,0,16,0.03
2013-6-27,78.6,71.0,62.4,72.1,67.1,62.1,100,88,72,29.84,29.66,4,1,8,0.35
2013-6-28,82.6,71.8,62.1,70.3,65.4,60.9,97,81,58,29.63,29.51,5,1,24,0.20
2013-6-29,84.0,70.6,59.6,66.0,61.7,58.5,98,76,45,29.70,29.54,5,0,14,0.01
2013-6-30,84.4,70.0,60.0,71.6,65.0,59.0,99,86,55,29.84,29.70,4,0,12,1.07
2013-7-1,82.8,72.1,65.8,72.0,68.2,65.6,100,89,63,29.93,29.82,1,0,9,0.04
2013-7-2,80.3,73.0,66.0,71.4,68.1,65.4,100,85,69,30.10,29.93,6,0,15,0.00
2013-7-3,84.9,74.3,66.1,73.9,68.8,65.0,99,84,65,30.19,30.09,4,0,18,0.01
2013-7-4,88.2,76.4,66.8,74.7,69.0,66.4,100,80,53,30.22,30.11,2,0,17,0.01
2013-7-5,88.1,76.9,65.8,72.8,68.7,65.0,99,78,54,30.18,30.08,2,0,21,0.00
2013-7-6,91.5,76.7,65.3,74.5,67.8,64.7,100,77,43,30.19,30.02,3,0,6,0.00
2013-7-7,87.2,74.1,66.0,73.8,67.6,64.6,98,81,60,30.10,29.99,2,0,18,0.02
2013-7-8,84.9,73.0,63.8,67.5,64.6,61.7,99,77,52,30.13,30.05,2,0,6,0.00
2013-7-9,83.8,74.0,67.6,74.4,67.8,65.0,95,82,57,30.11,30.00,2,0,11,0.00
2013-7-10,86.3,75.3,66.7,76.8,70.4,65.6,98,86,67,30.03,29.84,3,0,17,0.28
2013-7-11,80.7,70.9,63.8,71.1,67.2,62.2,99,89,69,29.98,29.86,4,0,10,1.31
2013-7-12,70.4,64.6,60.8,66.1,63.7,60.5,100,97,84,30.10,29.95,4,0,8,0.44
2013-7-13,81.5,71.5,64.4,71.5,67.7,64.4,100,89,67,30.24,30.09,3,0,6,0.01
2013-7-14,86.8,75.7,65.8,73.3,69.4,65.5,100,83,55,30.31,30.24,1,0,13,0.08
2013-7-15,90.2,75.6,63.4,75.7,68.6,63.1,100,82,51,30.33,30.22,2,0,7,0.00
2013-7-16,89.5,76.7,65.1,78.9,71.3,64.8,100,85,63,30.29,30.18,1,0,10,0.00
2013-7-17,90.3,78.5,68.0,77.7,72.8,67.7,100,84,56,30.26,30.11,1,0,9,0.00
2013-7-18,90.6,77.7,68.7,78.7,73.0,68.2,100,86,61,30.15,30.02,2,0,19,0.05
2013-7-19,92.7,75.2,67.9,79.4,71.0,67.6,100,88,51,30.04,29.89,11,1,28,0.19
2013-7-20,89.4,77.6,67.9,74.2,69.5,63.1,100,78,55,29.93,29.80,6,2,17,0.00
2013-7-21,83.4,72.4,65.0,72.6,68.1,63.2,99,87,62,29.95,29.89,5,1,8,0.04
2013-7-22,85.1,73.7,68.2,75.4,70.8,67.9,100,92,65,29.95,29.76,5,1,11,0.14
2013-7-23,84.3,74.1,66.0,71.6,68.1,64.5,100,83,55,29.77,29.68,4,0,15,0.06
2013-7-24,79.0,69.2,59.0,67.4,62.9,55.7,99,81,58,29.96,29.70,7,2,16,0.04
2013-7-25,77.0,65.0,56.3,61.5,57.5,53.7,97,78,54,30.08,29.95,5,1,9,0.00
2013-7-26,81.4,66.1,51.2,65.2,58.2,50.8,100,79,47,30.12,30.01,2,0,10,0.00
2013-7-27,73.3,65.7,58.5,68.8,64.0,57.9,100,95,80,30.03,29.90,4,0,8,0.08
2013-7-28,82.7,69.6,60.3,68.3,62.3,56.1,100,81,45,30.03,29.86,2,0,16,0.03
2013-7-29,77.7,64.5,50.6,59.7,54.2,49.7,99,72,42,30.20,30.04,3,0,20,0.00
2013-7-30,80.4,66.8,53.9,64.6,58.8,52.8,98,78,51,30.25,30.15,4,0,7,0.00
2013-7-31,78.1,65.3,57.2,67.0,62.1,56.6,99,90,62,30.16,29.99,2,0,6,0.04
2013-8-1,83.2,70.0,62.5,68.8,64.7,60.9,100,85,54,29.99,29.84,1,0,16,0.01
2013-8-2,83.6,70.2,57.6,64.5,59.1,53.8,100,72,38,29.99,29.91,4,0,17,0.00
2013-8-3,73.5,68.6,60.6,67.6,63.0,59.3,99,83,67,29.98,29.93,0,0,16,0.34
2013-8-4,77.2,65.8,56.2,65.4,57.9,50.1,100,79,40,30.08,29.97,2,0,21,0.00
2013-8-5,77.7,64.8,50.6,59.9,55.9,49.9,100,75,48,30.14,30.01,3,0,8,0.00
2013-8-6,80.8,68.6,56.5,67.5,61.6,55.4,100,80,56,30.04,29.99,1,0,11,0.06
2013-8-7,87.2,71.5,62.7,73.7,67.6,62.1,100,89,58,30.03,29.93,4,0,15,0.19
2013-8-8,81.1,71.8,67.3,75.8,70.4,67.3,100,96,77,30.00,29.94,1,0,8,0.44
2013-8-9,80.3,73.1,69.2,74.3,70.8,68.9,100,93,73,29.99,29.90,0,0,17,0.14
2013-8-10,81.9,71.9,63.7,72.2,67.8,61.3,100,88,65,30.09,29.98,1,0,8,0.04
2013-8-11,83.2,72.5,62.6,72.9,66.9,61.2,97,84,64,30.11,29.99,1,0,7,0.00
2013-8-12,87.2,74.4,64.6,71.8,66.7,62.3,99,79,45,30.04,29.89,0,0,5,0.00
2013-8-13,83.3,70.7,64.7,71.2,66.5,58.9,100,88,53,29.89,29.76,0,0,16,1.00
2013-8-14,69.3,60.2,49.1,59.2,51.7,47.3,97,75,51,30.16,29.88,5,1,15,0.01
2013-8-15,74.6,59.5,46.9,58.0,52.0,46.6,100,80,42,30.23,30.11,2,0,7,0.00
2013-8-16,60.0,51.9,48.7,57.1,51.0,48.2,100,97,90,30.18,30.14,0,0,0,0.00